FW3057 Weather Reports


Display with metric or nautical units.
time (UTC)temp
F
wind
direction
speed
MPH
gust
MPH
rain 1hr
in
rain 24hr
in
rain mn
in
humidity
%
barometer
mb
20260901190309 64 308 2.0 4.0 0.00 0.00 0.00 81 1022.5
20260901184309 65 314 2.0 5.0 0.00 0.00 0.00 80 1022.2
20260901180309 65 318 2.0 5.0 0.00 0.00 0.00 79 1022.2
20260901175309 65 351 3.0 6.0 0.00 0.00 0.00 78 1022.0
20260901174309 66 20 2.0 6.0 0.00 0.00 0.00 78 1022.2
20260901173309 66 8 3.0 5.0 0.00 0.00 0.00 77 1022.2
20260901172309 67 286 1.0 4.0 0.00 0.00 0.00 77 1022.2
20260901171309 67 323 2.0 4.0 0.00 0.00 0.00 76 1022.4
20260901170309 67 44 3.0 5.0 0.00 0.00 0.00 78 1022.2
20260901164309 68 56 4.0 10.0 0.00 0.00 0.00 77 1022.2
20260901163309 68 1 2.0 7.0 0.00 0.00 0.00 77 1022.2
20260901162309 67 68 3.0 7.0 0.00 0.00 0.00 78 1022.3
20260901161309 67 49 4.0 7.0 0.00 0.00 0.00 78 1022.2
20260901160309 68 74 3.0 7.0 0.00 0.00 0.00 76 1022.4
20260901155309 68 14 3.0 9.0 0.00 0.00 0.00 76 1022.4
20260901154309 69 94 4.0 9.0 0.00 0.00 0.00 76 1022.4
20260901153309 69 346 5.0 8.0 0.00 0.00 0.00 77 1022.3
20260901152309 68 302 3.0 8.0 0.00 0.00 0.00 76 1022.4
20260901151309 69 8 3.0 8.0 0.00 0.00 0.00 74 1022.2
20260901150309 69 344 4.0 7.0 0.00 0.00 0.00 73 1022.4
20260901145309 68 6 5.0 8.0 0.00 0.00 0.00 75 1022.4
20260901144309 68 323 4.0 9.0 0.00 0.00 0.00 74 1022.3
20260901143309 68 59 5.0 11.0 0.00 0.00 0.00 74 1022.5
20260901142309 68 32 3.0 12.0 0.00 0.00 0.00 74 1022.5
20260901141309 69 323 4.0 7.0 0.00 0.00 0.00 73 1022.5
20260901140309 69 49 3.0 11.0 0.00 0.00 0.00 71 1022.5
20260901134309 69 95 6.0 9.0 0.00 0.00 0.00 74 1022.4
20260901133309 69 49 4.0 11.0 0.00 0.00 0.00 75 1022.3
20260901132309 68 54 6.0 8.0 0.00 0.00 0.00 75 1022.5
20260901131309 68 32 4.0 9.0 0.00 0.00 0.00 75 1022.4
20260901125309 69 74 6.0 9.0 0.00 0.00 0.00 74 1022.5
20260901124309 68 66 5.0 11.0 0.00 0.00 0.00 75 1022.5
20260901123309 67 86 6.0 9.0 0.00 0.00 0.00 74 1022.5
20260901121310 67 94 3.0 8.0 0.00 0.00 0.00 77 1022.7
20260901120310 66 89 3.0 7.0 0.00 0.00 0.00 77 1022.7
20260901115310 66 52 4.0 9.0 0.00 0.00 0.00 77 1022.8
20260901114310 66 84 4.0 8.0 0.00 0.00 0.00 77 1022.8
20260901113311 66 79 3.0 7.0 0.00 0.00 0.00 77 1022.8
20260901112310 66 96 5.0 8.0 0.00 0.00 0.00 78 1022.7
20260901111310 65 84 5.0 8.0 0.00 0.00 0.00 78 1022.7
20260901110311 65 79 5.0 8.0 0.00 0.00 0.00 77 1022.7
20260901105310 66 101 4.0 8.0 0.00 0.00 0.00 77 1022.8
20260901103310 66 108 2.0 6.0 0.00 0.00 0.00 77 1022.8
20260901102310 66 100 4.0 7.0 0.00 0.00 0.00 76 1023.0
20260901101310 66 46 4.0 7.0 0.00 0.00 0.00 76 1023.2
20260901094310 67 89 3.0 5.0 0.00 0.00 0.00 73 1023.3
20260901092310 67 13 2.0 4.0 0.00 0.00 0.00 74 1023.5
20260901091310 66 46 1.0 4.0 0.00 0.00 0.00 75 1023.5
20260901085310 66 264 5.0 7.0 0.00 0.00 0.00 78 1023.5
20260901083310 64 274 3.0 4.0 0.00 0.00 0.00 81 1023.2
20260901081310 63 331 3.0 7.0 0.00 0.00 0.00 84 1023.2
20260901080311 62 269 5.0 7.0 0.00 0.00 0.00 86 1023.2
20260901075310 61 300 4.0 6.0 0.00 0.00 0.00 87 1023.2
20260901074310 60 314 2.0 4.0 0.00 0.00 0.00 88 1023.1
20260901073310 59 223 4.0 5.0 0.00 0.00 0.00 89 1023.0
20260901072310 58 213 2.0 5.0 0.00 0.00 0.00 90 1022.8
20260901071310 57 216 2.0 4.0 0.00 0.00 0.00 90 1022.7
20260901070310 56 244 2.0 4.0 0.00 0.00 0.00 91 1022.7
20260901065310 56 213 2.0 4.0 0.00 0.00 0.00 91 1022.6
20260901064310 56 218 1.0 4.0 0.00 0.00 0.00 91 1022.5
20260901063311 55 197 2.0 5.0 0.00 0.00 0.00 90 1022.6
20260901061309 54 217 2.0 4.0 0.00 0.00 0.00 90 1022.2
20260901060310 54 206 2.0 4.0 0.00 0.00 0.00 90 1022.2
20260901055309 54 234 3.0 5.0 0.00 0.00 0.00 90 1022.2
20260901054309 54 219 2.0 4.0 0.00 0.00 0.00 90 1022.1
20260901053309 55 195 3.0 5.0 0.00 0.00 0.00 90 1022.1
20260901052309 55 223 3.0 5.0 0.00 0.00 0.00 90 1022.2
20260901050311 55 216 2.0 4.0 0.00 0.00 0.00 90 1022.1
20260901044311 55 197 2.0 4.0 0.00 0.00 0.00 91 1022.2
20260901043311 55 231 2.0 5.0 0.00 0.00 0.00 91 1022.3
20260901041310 55 206 2.0 3.0 0.00 0.00 0.00 91 1022.2
20260901040310 55 193 2.0 4.0 0.00 0.00 0.00 91 1022.1
20260901035310 55 257 2.0 4.0 0.00 0.00 0.00 91 1022.0
20260901034310 55 216 3.0 5.0 0.00 0.00 0.00 91 1022.2
20260901033310 55 221 2.0 5.0 0.00 0.00 0.00 91 1022.1
20260901032311 56 213 2.0 5.0 0.00 0.00 0.00 91 1022.0
20260901031310 56 258 2.0 5.0 0.00 0.00 0.00 91 1022.0
20260901030310 56 222 2.0 5.0 0.00 0.00 0.00 91 1021.9
20260901025310 56 244 3.0 7.0 0.00 0.00 0.00 91 1022.0
20260901024310 56 293 2.0 5.0 0.00 0.00 0.00 91 1022.0
20260901023310 56 269 3.0 6.0 0.00 0.00 0.00 91 1022.0
20260901022310 56 229 2.0 5.0 0.00 0.00 0.00 91 1022.0
20260901021310 56 269 3.0 5.0 0.00 0.00 0.00 91 1022.0
20260901015310 56 218 3.0 4.0 0.00 0.00 0.00 91 1022.1
20260901014310 56 231 3.0 4.0 0.00 0.00 0.00 91 1022.0
20260901013310 56 239 2.0 4.0 0.00 0.00 0.00 91 1022.0
20260901012310 56 221 2.0 5.0 0.00 0.00 0.00 91 1022.0
20260901011310 56 226 2.0 5.0 0.00 0.00 0.00 91 1022.0
20260901005310 57 252 3.0 6.0 0.00 0.00 0.00 91 1022.0
20260901004310 57 271 4.0 5.0 0.00 0.00 0.00 91 1022.0
20260901003310 57 272 3.0 7.0 0.00 0.00 0.00 91 1022.0
20260901002310 57 276 3.0 7.0 0.00 0.00 0.00 91 1022.1
20260901001312 57 271 4.0 7.0 0.00 0.00 0.00 91 1022.0
20260901000314 57 272 4.0 7.0 0.00 0.00 0.00 91 1022.2
20260831235311 57 277 5.0 7.0 0.00 0.00 0.00 91 1022.1
20260831234310 57 283 5.0 8.0 0.00 0.00 0.00 91 1022.1
20260831233310 57 285 5.0 8.0 0.00 0.00 0.00 90 1022.2
20260831231310 58 288 5.0 8.0 0.00 0.00 0.00 90 1022.4
20260831230310 58 286 3.0 8.0 0.00 0.00 0.00 90 1022.4
20260831225310 58 290 4.0 7.0 0.00 0.00 0.00 90 1022.2
20260831223310 58 264 5.0 7.0 0.00 0.00 0.00 90 1022.3
20260831222310 58 293 6.0 8.0 0.00 0.00 0.00 89 1022.2
20260831221310 58 271 5.0 8.0 0.00 0.00 0.00 89 1022.2
20260831220310 58 288 4.0 7.0 0.00 0.00 0.00 88 1022.3
20260831214310 59 271 4.0 7.0 0.00 0.00 0.00 87 1022.2
20260831213309 59 283 3.0 6.0 0.00 0.00 0.00 86 1022.1
20260831212309 60 288 3.0 6.0 0.00 0.00 0.00 86 1022.2
20260831211310 60 279 3.0 6.0 0.00 0.00 0.00 86 1022.1
20260831210310 60 262 3.0 6.0 0.00 0.00 0.00 85 1022.1
20260831205309 60 284 3.0 5.0 0.00 0.00 0.00 84 1022.2
20260831204309 61 278 4.0 7.0 0.00 0.00 0.00 83 1022.1
20260831203309 61 269 3.0 4.0 0.00 0.00 0.00 83 1022.0
20260831202309 61 290 4.0 5.0 0.00 0.00 0.00 81 1021.9
20260831201309 62 257 3.0 4.0 0.00 0.00 0.00 80 1021.8
20260831200309 62 284 3.0 4.0 0.00 0.00 0.00 79 1021.7
20260831195310 62 274 2.0 4.0 0.00 0.00 0.00 79 1021.6
20260831194309 63 276 2.0 4.0 0.00 0.00 0.00 78 1021.6
20260831193309 63 290 2.0 4.0 0.00 0.00 0.00 77 1021.4
20260831192309 64 319 2.0 3.0 0.00 0.00 0.00 76 1021.2
20260831191309 64 314 2.0 4.0 0.00 0.00 0.00 76 1021.1